QPF
0.00 0.00 0.00 0.00 0.00 0.00 0.00 0.00 0.00 0.00 0.00 0.00 0.00 0.00 0.00 0.00 0.00 0.00 0.00 0.00 0.01 0.01 0.02 0.03 0.03 0.04 0.05 0.06 0.06 0.04 0.07 0.11 0.12 0.11 0.12 0.12 0.13 0.13 0.11 0.13 0.15 0.18 0.21 0.23
0.00 0.00 0.00 0.00 0.00 0.00 0.00 0.00 0.00 0.00 0.00 0.00 0.00 0.00 0.00 0.00 0.00 0.00 0.00 0.01 0.01 0.02 0.03 0.04 0.03 0.04 0.03 0.03 0.03 0.03 0.04 0.04 0.03 0.03 0.04 0.05 0.06 0.06 0.06 0.07 0.10 0.13 0.15 0.17
0.00 0.00 0.00 0.00 0.00 0.00 0.00 0.00 0.00 0.00 0.00 0.00 0.00 0.00 0.00 0.00 0.00 0.01 0.01 0.01 0.02 0.02 0.02 0.02 0.02 0.02 0.02 0.01 0.01 0.01 0.01 0.01 0.01 0.01 0.02 0.02 0.02 0.02 0.02 0.02 0.03 0.06 0.07 0.08
0.00 0.00 0.00 0.00 0.00 0.00 0.00 0.00 0.00 0.00 0.00 0.00 0.00 0.00 0.00 0.00 0.00 0.01 0.01 0.01 0.02 0.02 0.02 0.01 0.01 0.01 0.01 0.00 0.00 0.00 0.00 0.00 0.00 0.00 0.00 0.01 0.01 0.01 0.01 0.01 0.02 0.02 0.02 0.03
0.00 0.00 0.00 0.00 0.00 0.00 0.00 0.00 0.00 0.00 0.00 0.00 0.00 0.00 0.00 0.00 0.00 0.00 0.00 0.01 0.01 0.02 0.01 0.01 0.01 0.00 0.00 0.00 0.00 0.00 0.00 0.00 0.00 0.00 0.00 0.00 0.00 0.00 0.00 0.00 0.00 0.00 0.01 0.01
0.00 0.00 0.00 0.00 0.00 0.00 0.00 0.00 0.00 0.00 0.00 0.00 0.00 0.00 0.00 0.00 0.00 0.00 0.01 0.01 0.01 0.01 0.01 0.01 0.01 0.00 0.00 0.00 0.00 0.00 0.00 0.00 0.00 0.00 0.00 0.00 0.00 0.00 0.00 0.00 0.00 0.00 0.00 0.00
0.00 0.00 0.00 0.00 0.00 0.00 0.00 0.00 0.00 0.00 0.00 0.00 0.00 0.00 0.00 0.00 0.00 0.00 0.00 0.00 0.01 0.01 0.01 0.00 0.00 0.00 0.00 0.00 0.00 0.00 0.00 0.00 0.00 0.00 0.00 0.00 0.00 0.00 0.00 0.00 0.00 0.00 0.00 0.00
0.00 0.00 0.00 0.00 0.00 0.00 0.00 0.00 0.00 0.00 0.00 0.00 0.00 0.00 0.00 0.00 0.00 0.00 0.00 0.00 0.01 0.01 0.01 0.00 0.01 0.01 0.01 0.01 0.01 0.01 0.00 0.00 0.00 0.00 0.00 0.00 0.00 0.00 0.00 0.00 0.00 0.00 0.00 0.00
0.00 0.00 0.00 0.00 0.00 0.00 0.00 0.00 0.00 0.00 0.00 0.00 0.00 0.00 0.00 0.00 0.00 0.00 0.00 0.00 0.00 0.01 0.00 0.00 0.01 0.01 0.01 0.01 0.01 0.01 0.00 0.00 0.00 0.00 0.00 0.00 0.00 0.00 0.00 0.00 0.00 0.00 0.00 0.00
0.00 0.00 0.00 0.00 0.00 0.00 0.00 0.00 0.00 0.00 0.00 0.00 0.00 0.00 0.00 0.00 0.00 0.00 0.00 0.01 0.01 0.01 0.01 0.01 0.01 0.01 0.01 0.01 0.00 0.00 0.00 0.00 0.00 0.00 0.00 0.00 0.00 0.00 0.00 0.00 0.00 0.00 0.00 0.00
0.00 0.00 0.00 0.00 0.00 0.00 0.00 0.00 0.00 0.00 0.00 0.00 0.00 0.00 0.00 0.00 0.00 0.00 0.00 0.01 0.01 0.01 0.01 0.00 0.00 0.00 0.00 0.00 0.00 0.00 0.00 0.00 0.00 0.00 0.00 0.00 0.00 0.00 0.00 0.00 0.00 0.00 0.00 0.00
0.00 0.00 0.00 0.00 0.00 0.00 0.00 0.00 0.00 0.00 0.00 0.00 0.00 0.00 0.00 0.00 0.00 0.00 0.00 0.00 0.00 0.00 0.00 0.00 0.00 0.00 0.00 0.00 0.00 0.00 0.00 0.00 0.00 0.00 0.00 0.00 0.00 0.00 0.00 0.00 0.00 0.00 0.00 0.00
0.00 0.00 0.00 0.00 0.00 0.00 0.00 0.00 0.00 0.00 0.00 0.00 0.00 0.00 0.00 0.00 0.00 0.00 0.00 0.00 0.00 0.00 0.00 0.00 0.00 0.00 0.00 0.00 0.00 0.00 0.00 0.00 0.00 0.00 0.00 0.00 0.00 0.00 0.00 0.00 0.00 0.00 0.00 0.00
0.00 0.00 0.00 0.00 0.00 0.00 0.00 0.00 0.00 0.00 0.00 0.00 0.00 0.00 0.00 0.00 0.00 0.00 0.00 0.00 0.00 0.00 0.00 0.00 0.00 0.00 0.00 0.00 0.00 0.00 0.00 0.00 0.00 0.00 0.01 0.01 0.01 0.00 0.00 0.00 0.00 0.00 0.00 0.00
0.00 0.00 0.00 0.00 0.00 0.00 0.00 0.00 0.00 0.00 0.00 0.00 0.00 0.00 0.01 0.01 0.01 0.01 0.00 0.00 0.00 0.00 0.00 0.00 0.00 0.00 0.00 0.00 0.00 0.00 0.00 0.00 0.00 0.01 0.01 0.01 0.01 0.01 0.01 0.00 0.00 0.00 0.00 0.00
0.00 0.00 0.00 0.00 0.00 0.00 0.00 0.00 0.00 0.00 0.00 0.00 0.01 0.01 0.01 0.01 0.01 0.01 0.01 0.00 0.00 0.00 0.00 0.00 0.00 0.00 0.00 0.00 0.00 0.00 0.00 0.00 0.00 0.01 0.01 0.01 0.01 0.01 0.01 0.01 0.00 0.00 0.00 0.01
0.00 0.00 0.00 0.00 0.00 0.00 0.00 0.00 0.00 0.00 0.01 0.01 0.02 0.02 0.01 0.01 0.01 0.01 0.00 0.00 0.00 0.00 0.00 0.00 0.00 0.00 0.00 0.00 0.00 0.00 0.00 0.00 0.01 0.01 0.02 0.02 0.02 0.02 0.02 0.01 0.01 0.01 0.01 0.00
0.00 0.00 0.00 0.00 0.00 0.00 0.00 0.00 0.00 0.01 0.01 0.01 0.01 0.01 0.01 0.01 0.01 0.01 0.01 0.01 0.00 0.00 0.00 0.00 0.00 0.00 0.00 0.00 0.00 0.00 0.00 0.00 0.01 0.01 0.02 0.03 0.03 0.03 0.03 0.03 0.03 0.02 0.01 0.01
0.00 0.00 0.00 0.00 0.00 0.00 0.00 0.01 0.01 0.01 0.01 0.01 0.02 0.03 0.03 0.02 0.02 0.02 0.01 0.00 0.00 0.00 0.00 0.00 0.00 0.00 0.00 0.00 0.00 0.00 0.00 0.01 0.01 0.02 0.03 0.04 0.05 0.05 0.06 0.05 0.05 0.05 0.03 0.02
0.00 0.00 0.00 0.00 0.00 0.00 0.01 0.02 0.02 0.03 0.06 0.07 0.06 0.05 0.03 0.02 0.01 0.01 0.00 0.00 0.00 0.00 0.00 0.00 0.00 0.00 0.00 0.00 0.00 0.00 0.00 0.01 0.01 0.02 0.03 0.05 0.06 0.07 0.08 0.09 0.09 0.08 0.06 0.04
0.00 0.00 0.00 0.01 0.01 0.01 0.01 0.02 0.03 0.06 0.08 0.03 0.02 0.01 0.01 0.01 0.00 0.00 0.00 0.00 0.00 0.00 0.00 0.00 0.00 0.00 0.00 0.00 0.00 0.00 0.01 0.01 0.01 0.02 0.03 0.05 0.08 0.11 0.12 0.13 0.13 0.13 0.11 0.07
0.00 0.00 0.00 0.01 0.01 0.02 0.01 0.01 0.01 0.01 0.01 0.01 0.01 0.01 0.00 0.00 0.00 0.00 0.00 0.00 0.00 0.00 0.00 0.00 0.00 0.00 0.00 0.00 0.00 0.00 0.00 0.01 0.01 0.02 0.04 0.07 0.11 0.14 0.17 0.18 0.19 0.18 0.15 0.11
0.00 0.00 0.00 0.01 0.01 0.00 0.00 0.00 0.01 0.01 0.01 0.00 0.00 0.00 0.00 0.00 0.00 0.00 0.00 0.00 0.00 0.00 0.00 0.00 0.00 0.00 0.00 0.00 0.00 0.00 0.00 0.01 0.01 0.02 0.04 0.06 0.10 0.14 0.19 0.21 0.21 0.23 0.20 0.15
0.00 0.00 0.00 0.00 0.00 0.00 0.00 0.01 0.01 0.00 0.00 0.00 0.00 0.00 0.00 0.00 0.00 0.00 0.00 0.00 0.00 0.00 0.00 0.00 0.00 0.00 0.00 0.00 0.00 0.00 0.01 0.02 0.01 0.01 0.02 0.04 0.08 0.12 0.18 0.22 0.22 0.24 0.23 0.18
0.00 0.00 0.00 0.01 0.01 0.01 0.01 0.01 0.00 0.00 0.00 0.00 0.00 0.00 0.00 0.00 0.00 0.00 0.00 0.00 0.00 0.00 0.00 0.00 0.00 0.00 0.00 0.00 0.00 0.00 0.00 0.01 0.01 0.01 0.02 0.03 0.07 0.12 0.18 0.22 0.22 0.23 0.22 0.19
0.00 0.00 0.00 0.01 0.01 0.01 0.01 0.00 0.00 0.00 0.00 0.00 0.00 0.00 0.00 0.00 0.00 0.00 0.00 0.00 0.00 0.00 0.00 0.00 0.00 0.00 0.00 0.00 0.00 0.00 0.00 0.01 0.02 0.02 0.02 0.04 0.08 0.13 0.17 0.21 0.23 0.25 0.25 0.24
MSLP
1012.14 1012.73 1013.15 1013.39 1013.47 1013.45 1013.37 1013.28 1013.21 1013.14 1013.06 1012.95 1012.79 1012.57 1012.30 1012.00 1011.71 1011.45 1011.25 1011.11 1011.01 1010.94 1010.86 1010.76 1010.63 1010.45 1010.27 1010.09 1009.96 1009.91 1009.94 1010.05 1010.23 1010.43 1010.64 1010.81 1010.92 1010.95 1010.90 1010.79 1010.63 1010.44 1010.23 1010.02
1012.37 1012.84 1013.14 1013.29 1013.35 1013.37 1013.41 1013.48 1013.60 1013.73 1013.83 1013.87 1013.79 1013.59 1013.29 1012.91 1012.51 1012.13 1011.81 1011.58 1011.43 1011.32 1011.23 1011.13 1010.97 1010.77 1010.54 1010.30 1010.10 1009.97 1009.93 1009.99 1010.14 1010.35 1010.56 1010.75 1010.87 1010.91 1010.85 1010.71 1010.51 1010.27 1010.03 1009.79
1012.44 1012.76 1012.94 1013.03 1013.10 1013.19 1013.37 1013.63 1013.95 1014.30 1014.58 1014.74 1014.73 1014.52 1014.15 1013.65 1013.11 1012.59 1012.16 1011.83 1011.61 1011.49 1011.39 1011.29 1011.15 1010.95 1010.69 1010.42 1010.17 1009.99 1009.91 1009.94 1010.07 1010.28 1010.51 1010.73 1010.87 1010.92 1010.87 1010.72 1010.50 1010.23 1009.95 1009.68
1012.41 1012.58 1012.65 1012.70 1012.79 1012.98 1013.31 1013.78 1014.32 1014.86 1015.30 1015.57 1015.59 1015.35 1014.89 1014.27 1013.57 1012.91 1012.33 1011.91 1011.62 1011.46 1011.37 1011.29 1011.16 1010.97 1010.72 1010.43 1010.16 1009.95 1009.85 1009.86 1010.00 1010.22 1010.48 1010.72 1010.90 1010.97 1010.93 1010.79 1010.56 1010.28 1009.98 1009.69
1012.39 1012.41 1012.40 1012.41 1012.54 1012.84 1013.33 1013.98 1014.72 1015.44 1016.02 1016.36 1016.40 1016.13 1015.57 1014.81 1013.97 1013.15 1012.45 1011.91 1011.56 1011.36 1011.26 1011.18 1011.07 1010.90 1010.66 1010.37 1010.09 1009.87 1009.75 1009.77 1009.91 1010.14 1010.42 1010.69 1010.90 1011.01 1010.99 1010.86 1010.64 1010.35 1010.05 1009.75
1012.47 1012.37 1012.28 1012.28 1012.45 1012.85 1013.47 1014.29 1015.19 1016.04 1016.73 1017.13 1017.18 1016.86 1016.21 1015.35 1014.37 1013.43 1012.61 1011.99 1011.56 1011.31 1011.19 1011.10 1011.00 1010.83 1010.59 1010.30 1010.01 1009.77 1009.65 1009.65 1009.79 1010.03 1010.33 1010.62 1010.86 1010.99 1011.00 1010.89 1010.68 1010.41 1010.11 1009.80
1012.69 1012.50 1012.36 1012.35 1012.56 1013.03 1013.77 1014.69 1015.71 1016.66 1017.41 1017.85 1017.90 1017.55 1016.86 1015.91 1014.86 1013.83 1012.93 1012.22 1011.73 1011.43 1011.27 1011.16 1011.03 1010.84 1010.59 1010.29 1009.98 1009.72 1009.57 1009.55 1009.67 1009.90 1010.19 1010.49 1010.73 1010.87 1010.90 1010.81 1010.63 1010.38 1010.09 1009.79
1013.05 1012.81 1012.64 1012.64 1012.88 1013.40 1014.19 1015.17 1016.24 1017.24 1018.02 1018.48 1018.54 1018.19 1017.48 1016.51 1015.43 1014.36 1013.41 1012.66 1012.13 1011.78 1011.57 1011.41 1011.24 1011.02 1010.73 1010.39 1010.05 1009.75 1009.56 1009.50 1009.57 1009.75 1010.01 1010.27 1010.50 1010.64 1010.68 1010.61 1010.45 1010.23 1009.97 1009.68
1013.47 1013.24 1013.07 1013.08 1013.33 1013.87 1014.66 1015.65 1016.71 1017.70 1018.49 1018.94 1019.01 1018.69 1018.01 1017.08 1016.03 1014.98 1014.05 1013.29 1012.73 1012.34 1012.07 1011.86 1011.64 1011.36 1011.02 1010.63 1010.24 1009.89 1009.63 1009.50 1009.50 1009.61 1009.79 1009.99 1010.18 1010.30 1010.33 1010.27 1010.15 1009.96 1009.73 1009.47
1013.88 1013.68 1013.55 1013.58 1013.84 1014.35 1015.11 1016.04 1017.05 1017.99 1018.73 1019.17 1019.26 1018.98 1018.38 1017.54 1016.58 1015.61 1014.73 1014.01 1013.45 1013.03 1012.73 1012.46 1012.18 1011.84 1011.45 1011.00 1010.55 1010.13 1009.79 1009.57 1009.47 1009.47 1009.55 1009.67 1009.78 1009.85 1009.87 1009.83 1009.73 1009.59 1009.41 1009.19
1014.17 1014.04 1013.97 1014.03 1014.28 1014.75 1015.44 1016.28 1017.18 1018.03 1018.71 1019.13 1019.24 1019.02 1018.52 1017.81 1016.98 1016.14 1015.36 1014.70 1014.17 1013.76 1013.42 1013.11 1012.77 1012.39 1011.94 1011.44 1010.93 1010.44 1010.02 1009.69 1009.47 1009.35 1009.31 1009.32 1009.34 1009.35 1009.35 1009.31 1009.25 1009.15 1009.04 1008.88
1014.28 1014.25 1014.25 1014.35 1014.59 1015.02 1015.61 1016.33 1017.11 1017.84 1018.44 1018.83 1018.95 1018.81 1018.43 1017.86 1017.19 1016.49 1015.83 1015.26 1014.78 1014.39 1014.04 1013.70 1013.33 1012.91 1012.42 1011.88 1011.32 1010.77 1010.27 1009.85 1009.51 1009.26 1009.09 1008.97 1008.89 1008.84 1008.80 1008.77 1008.75 1008.72 1008.68 1008.59
1014.23 1014.31 1014.39 1014.53 1014.78 1015.15 1015.65 1016.25 1016.89 1017.50 1018.00 1018.35 1018.48 1018.41 1018.14 1017.71 1017.19 1016.65 1016.12 1015.64 1015.22 1014.85 1014.51 1014.15 1013.76 1013.32 1012.81 1012.25 1011.67 1011.08 1010.52 1010.01 1009.57 1009.19 1008.89 1008.65 1008.48 1008.36 1008.29 1008.26 1008.28 1008.32 1008.36 1008.37
1014.10 1014.28 1014.44 1014.63 1014.87 1015.20 1015.61 1016.10 1016.61 1017.10 1017.52 1017.81 1017.95 1017.93 1017.75 1017.45 1017.07 1016.65 1016.23 1015.83 1015.47 1015.12 1014.78 1014.43 1014.03 1013.59 1013.08 1012.53 1011.93 1011.33 1010.73 1010.15 1009.62 1009.14 1008.73 1008.38 1008.11 1007.93 1007.83 1007.81 1007.87 1007.97 1008.09 1008.19
1014.01 1014.27 1014.49 1014.72 1014.97 1015.27 1015.62 1016.01 1016.41 1016.80 1017.13 1017.37 1017.50 1017.51 1017.40 1017.19 1016.90 1016.58 1016.23 1015.89 1015.56 1015.23 1014.89 1014.53 1014.13 1013.69 1013.20 1012.66 1012.08 1011.48 1010.86 1010.25 1009.65 1009.09 1008.59 1008.15 1007.81 1007.57 1007.44 1007.42 1007.51 1007.67 1007.86 1008.04
1014.09 1014.39 1014.66 1014.92 1015.18 1015.46 1015.77 1016.08 1016.40 1016.70 1016.96 1017.15 1017.25 1017.26 1017.18 1017.01 1016.78 1016.51 1016.20 1015.88 1015.55 1015.21 1014.86 1014.49 1014.09 1013.65 1013.18 1012.66 1012.11 1011.52 1010.91 1010.27 1009.65 1009.04 1008.47 1007.97 1007.56 1007.26 1007.10 1007.07 1007.17 1007.36 1007.61 1007.85
1014.42 1014.75 1015.04 1015.32 1015.59 1015.86 1016.13 1016.39 1016.64 1016.87 1017.06 1017.19 1017.26 1017.25 1017.16 1017.00 1016.77 1016.50 1016.19 1015.85 1015.49 1015.12 1014.74 1014.34 1013.93 1013.49 1013.03 1012.53 1012.01 1011.44 1010.85 1010.22 1009.58 1008.94 1008.33 1007.79 1007.33 1006.99 1006.79 1006.73 1006.82 1007.01 1007.28 1007.56
1015.06 1015.37 1015.67 1015.96 1016.23 1016.48 1016.72 1016.95 1017.14 1017.31 1017.43 1017.50 1017.51 1017.45 1017.33 1017.13 1016.87 1016.56 1016.21 1015.82 1015.41 1014.98 1014.55 1014.11 1013.66 1013.21 1012.75 1012.27 1011.77 1011.24 1010.67 1010.06 1009.43 1008.79 1008.17 1007.59 1007.10 1006.71 1006.47 1006.37 1006.42 1006.58 1006.83 1007.11
1015.96 1016.25 1016.53 1016.80 1017.05 1017.29 1017.50 1017.67 1017.82 1017.92 1017.98 1017.97 1017.91 1017.78 1017.59 1017.33 1017.01 1016.63 1016.21 1015.76 1015.27 1014.78 1014.28 1013.79 1013.31 1012.83 1012.37 1011.89 1011.41 1010.91 1010.37 1009.79 1009.18 1008.56 1007.94 1007.35 1006.83 1006.41 1006.11 1005.95 1005.93 1006.03 1006.22 1006.47
1017.01 1017.27 1017.52 1017.75 1017.98 1018.17 1018.34 1018.46 1018.55 1018.57 1018.55 1018.46 1018.31 1018.09 1017.82 1017.47 1017.07 1016.62 1016.13 1015.59 1015.04 1014.48 1013.92 1013.37 1012.85 1012.34 1011.86 1011.39 1010.92 1010.44 1009.94 1009.40 1008.83 1008.23 1007.63 1007.04 1006.50 1006.04 1005.69 1005.45 1005.35 1005.36 1005.47 1005.66
1018.09 1018.31 1018.51 1018.71 1018.87 1019.01 1019.12 1019.17 1019.17 1019.11 1018.99 1018.80 1018.55 1018.24 1017.87 1017.44 1016.96 1016.43 1015.87 1015.27 1014.65 1014.03 1013.42 1012.83 1012.27 1011.74 1011.24 1010.77 1010.32 1009.86 1009.39 1008.89 1008.37 1007.81 1007.23 1006.65 1006.10 1005.61 1005.19 1004.88 1004.68 1004.59 1004.62 1004.73
1019.07 1019.24 1019.40 1019.53 1019.63 1019.70 1019.71 1019.68 1019.58 1019.41 1019.19 1018.89 1018.54 1018.13 1017.66 1017.15 1016.60 1016.01 1015.38 1014.73 1014.07 1013.42 1012.77 1012.15 1011.57 1011.02 1010.52 1010.05 1009.61 1009.19 1008.75 1008.30 1007.81 1007.30 1006.75 1006.19 1005.63 1005.10 1004.63 1004.25 1003.96 1003.78 1003.72 1003.76
1019.85 1019.99 1020.09 1020.15 1020.17 1020.14 1020.05 1019.91 1019.69 1019.41 1019.07 1018.67 1018.21 1017.70 1017.16 1016.57 1015.96 1015.33 1014.67 1013.99 1013.32 1012.64 1011.98 1011.35 1010.76 1010.21 1009.71 1009.26 1008.84 1008.44 1008.04 1007.63 1007.19 1006.71 1006.19 1005.65 1005.09 1004.54 1004.03 1003.57 1003.21 1002.95 1002.82 1002.81
1020.40 1020.50 1020.53 1020.51 1020.44 1020.30 1020.11 1019.84 1019.51 1019.11 1018.66 1018.15 1017.60 1017.01 1016.39 1015.76 1015.11 1014.44 1013.77 1013.09 1012.41 1011.74 1011.08 1010.46 1009.87 1009.34 1008.85 1008.41 1008.01 1007.65 1007.28 1006.91 1006.51 1006.07 1005.58 1005.05 1004.50 1003.93 1003.38 1002.88 1002.46 1002.15 1001.96 1001.92
1020.73 1020.77 1020.74 1020.63 1020.45 1020.21 1019.90 1019.53 1019.08 1018.57 1018.02 1017.42 1016.79 1016.13 1015.47 1014.79 1014.12 1013.44 1012.76 1012.08 1011.41 1010.75 1010.11 1009.51 1008.93 1008.41 1007.95 1007.53 1007.16 1006.82 1006.49 1006.15 1005.79 1005.38 1004.92 1004.41 1003.85 1003.27 1002.70 1002.17 1001.71 1001.37 1001.16 1001.11
1020.88 1020.86 1020.74 1020.55 1020.27 1019.92 1019.51 1019.03 1018.49 1017.89 1017.25 1016.58 1015.89 1015.19 1014.49 1013.79 1013.10 1012.41 1011.73 1011.05 1010.39 1009.74 1009.11 1008.51 1007.95 1007.45 1007.00 1006.61 1006.26 1005.95 1005.66 1005.36 1005.03 1004.65 1004.21 1003.71 1003.16 1002.57 1001.99 1001.45 1000.97 1000.62 1000.41 1000.38
Thickness
5759 5746 5739 5747 5753 5757 5755 5751 5749 5760 5776 5770 5764 5765 5772 5782 5783 5781 5780 5780 5779 5779 5782 5783 5783 5780 5778 5775 5771 5767 5763 5760 5757 5753 5749 5745 5743 5744 5743 5742 5742 5741 5740 5739
5740 5738 5753 5760 5759 5754 5750 5745 5747 5757 5769 5764 5758 5757 5764 5770 5771 5772 5772 5771 5771 5770 5771 5773 5773 5772 5769 5767 5764 5759 5757 5754 5750 5747 5743 5740 5738 5737 5736 5736 5735 5735 5734 5733
5738 5748 5763 5760 5754 5748 5746 5744 5747 5749 5755 5754 5752 5742 5749 5758 5763 5765 5765 5765 5765 5764 5763 5764 5764 5763 5761 5759 5757 5755 5751 5748 5745 5741 5737 5733 5729 5727 5726 5726 5726 5727 5726 5726
5744 5756 5760 5756 5752 5749 5738 5753 5752 5747 5735 5724 5733 5713 5734 5742 5747 5753 5755 5756 5757 5759 5759 5757 5757 5756 5755 5754 5752 5749 5745 5742 5739 5735 5729 5725 5720 5716 5716 5716 5716 5717 5717 5717
5742 5755 5755 5751 5754 5755 5748 5751 5744 5736 5729 5715 5717 5707 5715 5733 5737 5743 5748 5752 5753 5754 5753 5753 5753 5752 5751 5749 5746 5743 5739 5736 5732 5728 5724 5719 5715 5713 5711 5710 5708 5708 5708 5708
5748 5760 5760 5758 5760 5759 5752 5737 5725 5713 5704 5693 5707 5702 5703 5717 5730 5737 5743 5746 5749 5750 5750 5749 5748 5747 5744 5743 5740 5736 5733 5730 5727 5723 5719 5715 5711 5708 5705 5703 5701 5700 5700 5700
5733 5745 5757 5764 5752 5749 5739 5713 5688 5684 5676 5681 5700 5698 5700 5722 5731 5734 5737 5739 5742 5742 5740 5739 5738 5737 5736 5735 5733 5730 5727 5724 5722 5718 5715 5711 5708 5704 5700 5698 5695 5693 5692 5692
5715 5715 5744 5755 5749 5737 5732 5714 5686 5674 5670 5677 5693 5695 5708 5724 5729 5731 5731 5730 5730 5729 5729 5729 5729 5728 5728 5728 5727 5724 5722 5720 5717 5714 5711 5707 5703 5699 5696 5693 5690 5687 5686 5685
5714 5717 5746 5753 5753 5744 5725 5713 5709 5686 5681 5674 5681 5696 5708 5718 5717 5717 5717 5716 5715 5715 5716 5717 5718 5719 5719 5718 5718 5717 5715 5713 5711 5709 5706 5702 5698 5695 5691 5688 5684 5681 5680 5679
5731 5720 5733 5742 5747 5742 5734 5713 5693 5681 5668 5664 5677 5681 5678 5690 5693 5698 5699 5700 5701 5703 5704 5705 5706 5707 5708 5708 5708 5708 5707 5705 5704 5702 5699 5697 5693 5690 5686 5681 5678 5675 5673 5671
5736 5716 5719 5725 5724 5720 5722 5709 5690 5675 5673 5661 5657 5667 5685 5681 5682 5683 5686 5688 5689 5690 5691 5692 5693 5694 5695 5696 5697 5696 5695 5695 5694 5693 5692 5689 5686 5683 5679 5675 5672 5669 5666 5664
5725 5707 5700 5710 5725 5727 5724 5714 5693 5681 5675 5663 5655 5660 5684 5679 5678 5677 5677 5678 5678 5678 5679 5680 5680 5682 5683 5683 5683 5683 5683 5683 5684 5684 5683 5682 5679 5676 5672 5669 5666 5662 5659 5657
5723 5706 5690 5692 5702 5716 5715 5711 5700 5682 5669 5655 5650 5659 5674 5670 5669 5668 5667 5666 5667 5667 5668 5668 5669 5668 5668 5668 5668 5669 5670 5670 5673 5674 5674 5673 5672 5669 5666 5663 5659 5656 5653 5651
5730 5707 5696 5689 5692 5703 5703 5703 5696 5677 5663 5657 5660 5661 5660 5658 5657 5656 5656 5656 5656 5656 5656 5656 5655 5655 5654 5654 5654 5654 5656 5658 5660 5662 5663 5663 5663 5662 5659 5655 5652 5648 5646 5643
5729 5710 5706 5704 5707 5705 5700 5695 5690 5681 5672 5662 5661 5654 5650 5649 5648 5647 5648 5647 5647 5646 5645 5644 5643 5643 5642 5642 5642 5642 5642 5644 5646 5649 5651 5652 5653 5652 5651 5648 5644 5641 5638 5636
5720 5712 5706 5702 5706 5700 5691 5687 5681 5673 5667 5659 5652 5644 5646 5644 5642 5640 5638 5637 5635 5634 5633 5632 5630 5629 5628 5627 5627 5627 5628 5629 5631 5633 5637 5639 5641 5641 5640 5639 5637 5634 5631 5628
5708 5701 5691 5685 5694 5693 5676 5671 5667 5657 5651 5649 5639 5633 5634 5631 5629 5627 5625 5623 5620 5618 5617 5615 5613 5612 5611 5611 5610 5610 5612 5613 5614 5617 5620 5623 5625 5627 5628 5628 5627 5625 5623 5620
5700 5689 5679 5676 5683 5667 5657 5665 5660 5647 5640 5636 5631 5626 5622 5618 5618 5617 5614 5609 5606 5603 5601 5599 5597 5596 5596 5595 5594 5593 5594 5594 5596 5598 5601 5604 5606 5610 5613 5614 5616 5616 5614 5612
5697 5686 5671 5664 5664 5658 5653 5652 5646 5637 5628 5623 5616 5613 5611 5609 5607 5606 5603 5597 5591 5587 5584 5582 5580 5579 5577 5577 5577 5576 5576 5576 5577 5580 5582 5585 5587 5591 5595 5600 5603 5606 5605 5605
5687 5680 5667 5658 5657 5646 5633 5639 5641 5632 5617 5610 5605 5601 5597 5592 5584 5587 5588 5582 5578 5574 5570 5567 5565 5562 5559 5559 5557 5555 5557 5557 5559 5562 5564 5567 5570 5574 5579 5585 5590 5594 5597 5598
5670 5662 5652 5646 5643 5630 5623 5629 5632 5609 5599 5597 5593 5588 5582 5574 5570 5571 5568 5563 5559 5555 5552 5549 5546 5542 5540 5539 5537 5536 5537 5539 5542 5545 5547 5550 5553 5558 5564 5571 5577 5583 5588 5589
5651 5647 5641 5635 5630 5618 5615 5614 5601 5591 5591 5586 5582 5577 5570 5565 5561 5557 5552 5547 5542 5537 5534 5530 5526 5525 5523 5521 5519 5520 5521 5524 5526 5528 5530 5534 5537 5543 5551 5557 5565 5572 5578 5582
5638 5632 5629 5621 5612 5607 5605 5599 5595 5589 5581 5577 5570 5565 5558 5551 5546 5541 5535 5530 5525 5521 5517 5514 5510 5509 5510 5508 5505 5506 5510 5511 5513 5514 5517 5520 5524 5529 5535 5543 5551 5560 5569 5575
5631 5628 5622 5612 5607 5603 5599 5595 5589 5581 5572 5566 5559 5552 5544 5535 5531 5525 5520 5515 5510 5507 5504 5501 5498 5498 5499 5499 5498 5499 5501 5502 5502 5504 5506 5509 5513 5517 5523 5530 5540 5549 5560 5568
5617 5618 5610 5601 5598 5596 5593 5586 5580 5572 5564 5556 5549 5540 5530 5522 5517 5512 5508 5504 5501 5499 5497 5494 5492 5492 5493 5494 5494 5494 5495 5494 5494 5495 5498 5500 5503 5507 5513 5521 5531 5542 5553 5563
5613 5607 5601 5593 5591 5582 5579 5576 5568 5559 5551 5544 5535 5528 5520 5511 5505 5503 5501 5499 5496 5495 5493 5491 5490 5490 5491 5491 5490 5490 5489 5488 5487 5488 5490 5492 5495 5499 5505 5513 5524 5536 5546 5557